This demonstration page uses our WeatherBlox Daily Observations layout. Learn more.

Left ArrowRight Arrow

40.92945, -100.16068

Hourly Observations for February 25, 2022

Temp ( °F °C ) Dew Point ( °F °C ) Humidity (%) Winds ( mph kmh ) Pressure ( in mb ) Visibility ( mi km ) Precip ( " mm )
12:15 am 00:15 Clear -1 -18.3 -6 -20.9 80 80 Calm 30.67 1038 10 16 0.00 0.00
12:35 am 00:35 Clear -3 -19.6 -8 -22.4 79 79 Calm 30.68 1039 10 16 0.00 0.00
12:55 am 00:55 Clear -4 -20.1 -9 -22.9 78 78 Calm 30.69 1039 10 16 0.00 0.00
1:15 am 01:15 Clear -3 -19.5 -8 -22.4 78 78 Calm 30.69 1039 10 16 0.00 0.00
1:35 am 01:35 Clear -4 -19.8 -8 -22.1 82 82 NW 3 6 30.70 1040 10 16 0.00 0.00
1:55 am 01:55 Clear -5 -20.4 -9 -23 80 80 Calm 30.71 1040 10 16 0.00 0.00
2:15 am 02:15 Clear -3 -19.7 -8 -22.4 79 79 W 3 6 30.70 1040 10 16 0.00 0.00
2:35 am 02:35 Clear -3 -19.5 -8 -22.4 78 78 W 5 7 30.70 1040 10 16 0.00 0.00
2:55 am 02:55 Clear -3 -19.5 -8 -22.3 79 79 W 6 9 30.71 1040 10 16 0.00 0.00
3:15 am 03:15 Clear -4 -19.9 -8 -22.4 81 81 WNW 5 7 30.71 1040 10 16 0.00 0.00
3:35 am 03:35 Clear -4 -20.1 -9 -22.5 81 81 Calm 30.70 1040 10 16 0.00 0.00
3:55 am 03:55 Clear -5 -20.7 -10 -23.5 78 78 N 5 7 30.70 1040 10 16 0.00 0.00
4:15 am 04:15 Clear -5 -20.6 -10 -23.2 80 80 NW 5 7 30.71 1040 10 16 0.00 0.00
4:35 am 04:35 Clear -5 -20.6 -10 -23.5 78 78 NW 5 7 30.72 1040 10 16 0.00 0.00
4:55 am 04:55 Clear -5 -20.5 -10 -23.2 79 79 Calm 30.73 1041 10 16 0.00 0.00
5:15 am 05:15 Clear -5 -20.3 -10 -23.1 78 78 Calm 30.73 1041 10 16 0.00 0.00
5:35 am 05:35 Clear -5 -20.6 -10 -23.4 78 78 Calm 30.73 1041 10 16 0.00 0.00
5:55 am 05:55 Clear -4 -20.1 -9 -22.9 78 78 Calm 30.74 1041 10 16 0.00 0.00
6:15 am 06:15 Clear -4 -19.9 -9 -22.5 80 80 Calm 30.74 1041 10 16 0.00 0.00
6:35 am 06:35 Clear -4 -20 -9 -22.9 78 78 Calm 30.75 1041 10 16 0.00 0.00
6:55 am 06:55 Clear -5 -20.7 -10 -23.6 78 78 Calm 30.75 1041 10 16 0.00 0.00
7:15 am 07:15 Clear -4 -20.2 -10 -23.1 78 78 Calm 30.76 1042 10 16 0.00 0.00
7:35 am 07:35 Sunny -4 -20.2 -10 -23.4 76 76 Calm 30.76 1042 10 16 0.00 0.00
7:55 am 07:55 Sunny -3 -19.2 -8 -22.2 77 77 Calm 30.75 1041 10 16 0.00 0.00
8:15 am 08:15 Sunny 0 -17.6 -5 -20.6 78 78 Calm 30.74 1041 10 16 0.00 0.00
8:35 am 08:35 Sunny 4 -15.7 -2 -18.8 77 77 Calm 30.73 1041 10 16 0.00 0.00
8:55 am 08:55 Sunny 7 -14 1 -17.4 76 76 Calm 30.71 1040 10 16 0.00 0.00
9:15 am 09:15 Sunny 9 -12.8 2 -16.9 72 72 Calm 30.69 1039 10 16 0.00 0.00
9:35 am 09:35 Sunny 11 -11.5 2 -16.5 67 67 SSW 3 6 30.69 1039 10 16 0.00 0.00
9:55 am 09:55 Sunny 14 -10.2 4 -15.7 64 64 Calm 30.68 1039 10 16 0.00 0.00
10:15 am 10:15 Sunny 18 -7.9 5 -14.8 58 58 SSW 6 9 30.65 1038 10 16 0.00 0.00
10:35 am 10:35 Sunny 19 -7.1 4 -15.4 52 52 WSW 5 7 30.64 1038 10 16 0.00 0.00
10:55 am 10:55 Sunny 21 -5.9 5 -14.9 49 49 S 7 11 30.63 1037 10 16 0.00 0.00
11:15 am 11:15 Sunny 23 -5.2 5 -14.9 47 47 SSW 7 11 30.62 1037 10 16 0.00 0.00
11:35 am 11:35 Sunny 24 -4.6 5 -15 44 44 SSW 6 9 30.62 1037 10 16 0.00 0.00
11:55 am 11:55 Sunny 25 -4 5 -15 42 42 SSW 7 11 30.60 1036 10 16 0.00 0.00
12:15 pm 12:15 Sunny 26 -3.4 5 -15.2 40 40 SSW 7 11 30.58 1036 10 16 0.00 0.00
12:35 pm 12:35 Sunny 28 -2.4 5 -15 38 38 SW 7 11 30.56 1035 10 16 0.00 0.00
12:55 pm 12:55 Sunny 29 -1.7 4 -15.5 34 34 W 9 15 30.54 1034 10 16 0.00 0.00
1:15 pm 13:15 Sunny 29 -1.7 4 -15.8 34 34 SW 6 9 30.53 1034 10 16 0.00 0.00
1:35 pm 13:35 Sunny 30 -1 3 -15.9 32 32 SW 8 13 30.51 1033 10 16 0.00 0.00
1:55 pm 13:55 Sunny 32 0 4 -15.4 31 31 W 7 11 30.49 1032 10 16 0.00 0.00
2:15 pm 14:15 Sunny 32 0.2 5 -15 31 31 W 5 7 30.48 1032 10 16 0.00 0.00
2:35 pm 14:35 Sunny 32 0.1 5 -15.1 31 31 W 3 6 30.47 1032 10 16 0.00 0.00
2:55 pm 14:55 Sunny 34 1 5 -15.1 29 29 N 6 9 30.46 1031 10 16 0.00 0.00
3:15 pm 15:15 Partly Cloudy 34 1.3 5 -15.1 29 29 Calm 30.45 1031 10 16 0.00 0.00
3:35 pm 15:35 Partly Cloudy 34 1.1 5 -15.1 29 29 SSE 5 7 30.45 1031 10 16 0.00 0.00
3:55 pm 15:55 Partly Cloudy 34 1.2 5 -15.1 29 29 SE 6 9 30.45 1031 10 16 0.00 0.00
4:15 pm 16:15 Sunny 35 1.6 5 -15 28 28 ESE 3 6 30.44 1031 10 16 0.00 0.00
4:35 pm 16:35 Sunny 35 1.5 5 -15 28 28 Calm 30.44 1031 10 16 0.00 0.00
4:55 pm 16:55 Sunny 35 1.8 5 -14.8 28 28 SSE 3 6 30.43 1030 10 16 0.00 0.00
5:15 pm 17:15 Sunny 35 1.6 5 -15 28 28 S 7 11 30.43 1031 10 16 0.00 0.00
5:35 pm 17:35 Sunny 34 1.2 5 -14.8 30 30 S 7 11 30.44 1031 10 16 0.00 0.00
5:55 pm 17:55 Sunny 33 0.5 5 -14.9 31 31 S 7 11 30.45 1031 10 16 0.00 0.00
6:15 pm 18:15 Sunny 31 -0.8 5 -15.2 33 33 SSE 7 11 30.47 1032 10 16 0.00 0.00
6:35 pm 18:35 Clear 28 -2.5 4 -15.6 36 36 SSE 7 11 30.48 1032 10 16 0.00 0.00
6:55 pm 18:55 Clear 27 -2.8 4 -15.7 37 37 SSE 7 11 30.50 1033 10 16 0.00 0.00
7:15 pm 19:15 Clear 24 -4.3 3 -15.9 40 40 S 8 13 30.51 1033 10 16 0.00 0.00
7:35 pm 19:35 Clear 24 -4.2 4 -15.4 42 42 SE 6 9 30.51 1033 10 16 0.00 0.00
7:55 pm 19:55 Clear 26 -3.1 4 -15.5 38 38 SE 5 7 30.50 1033 10 16 0.00 0.00
8:15 pm 20:15 Clear 24 -4.3 3 -16 40 40 SSE 6 9 30.51 1033 10 16 0.00 0.00
8:35 pm 20:35 Clear 24 -4.6 3 -16.1 41 41 SSE 6 9 30.52 1033 10 16 0.00 0.00
8:55 pm 20:55 Clear 22 -5.5 2 -16.5 42 42 Calm 30.52 1034 10 16 0.00 0.00
9:15 pm 21:15 Clear 19 -7.1 1 -17.5 44 44 NE 3 6 30.55 1035 10 16 0.00 0.00
9:35 pm 21:35 Clear 17 -8.1 1 -17.2 48 48 Calm 30.57 1035 10 16 0.00 0.00
9:55 pm 21:55 Clear 20 -6.7 2 -16.6 46 46 Calm 30.57 1035 10 16 0.00 0.00
10:15 pm 22:15 Clear 21 -6.3 2 -16.6 44 44 SW 6 9 30.56 1035 10 16 0.00 0.00
10:35 pm 22:35 Clear 21 -6.3 2 -16.8 44 44 Calm 30.56 1035 10 16 0.00 0.00
10:55 pm 22:55 Clear 23 -5.2 2 -16.5 41 41 S 3 6 30.55 1035 10 16 0.00 0.00
11:15 pm 23:15 Clear 21 -6.1 2 -16.5 44 44 S 6 9 30.55 1035 10 16 0.00 0.00
11:35 pm 23:35 Clear 21 -5.9 3 -16.3 44 44 SSW 13 20 30.54 1034 10 16 0.00 0.00
11:55 pm 23:55 Clear 20 -6.5 2 -16.5 45 45 SSW 12 19 30.55 1034 10 16 0.00 0.00

Powered by AerisWeather